CAPE
0 0 0 0 0 0 0 0 0 0 0 0 0 0 0 0 0 0 0 0 0 0
0 0 0 0 0 0 0 0 0 0 0 0 0 0 0 0 0 0 0 0 0 0
0 0 0 0 0 0 0 0 0 0 0 0 0 0 0 0 0 0 0 0 0 0
0 0 0 0 0 0 0 0 0 0 0 0 0 0 0 0 0 0 0 0 0 0
0 0 0 0 0 0 0 0 0 0 0 0 0 0 0 0 0 0 0 0 0 0
0 0 0 0 0 0 0 0 0 0 0 0 0 0 0 0 0 0 0 0 0 0
0 0 0 0 0 0 0 0 0 0 0 0 0 0 0 0 0 0 0 0 0 0
0 0 0 0 0 0 0 0 0 0 0 0 0 0 0 0 0 0 0 0 0 0
0 0 0 0 0 0 0 0 0 0 0 0 0 0 0 0 0 0 0 0 0 0
0 0 0 0 0 0 0 0 0 0 0 0 0 0 1 3 1 0 0 0 0 0
0 0 0 0 0 0 0 0 0 0 0 0 0 0 1 1 0 0 0 0 0 0
0 0 0 0 0 0 0 0 0 0 0 0 0 0 0 0 0 0 0 0 0 0
0 0 0 0 0 0 0 0 0 0 0 0 0 0 0 2 1 0 0 0 0 0
0 0 0 0 0 0 0 0 0 0 0 0 0 0 1 1 3 0 0 0 0 0
CIN
0 0 0 0 0 0 0 0 0 0 0 0 0 0 0 0 0 0 0 0 0 0
0 0 0 0 0 0 0 0 0 0 0 0 0 0 0 0 0 0 0 0 0 0
0 0 0 0 0 0 0 0 0 0 0 0 0 0 0 0 0 0 0 0 0 0
0 0 0 0 0 0 0 0 0 0 0 0 0 0 0 0 0 0 0 0 0 0
0 0 0 0 0 0 0 0 0 0 0 0 0 0 0 0 0 0 0 0 0 0
0 0 0 0 0 0 0 0 0 0 0 0 0 0 0 0 0 0 0 0 0 0
0 0 0 0 0 0 0 0 0 0 0 0 0 0 0 0 0 0 0 0 0 0
0 0 0 0 0 0 0 0 0 0 0 0 0 0 0 0 0 0 0 0 0 0
0 0 0 0 0 0 0 0 0 0 0 0 0 0 0 0 0 0 0 0 0 0
0 0 0 0 0 0 0 0 0 0 0 0 0 0 0 0 -1 0 0 0 0 0
0 0 0 0 0 0 0 0 0 0 0 0 0 0 0 0 -1 0 0 0 0 0
0 0 0 0 0 0 0 0 0 0 0 0 0 0 0 0 0 0 0 0 0 -1
0 0 0 0 0 0 0 0 0 0 0 0 0 0 0 0 -2 0 0 0 0 -1
0 0 0 0 0 0 0 0 0 0 0 0 0 0 0 0 -1 0 0 0 0 0
Wind_Speed
21 21 20 20 20 20 21 20 19 20 20 20 20 21 21 22 22 22 23 24 25 27
20 19 19 18 17 18 18 18 19 19 20 21 21 21 21 22 23 23 24 25 26 27
20 18 17 16 17 16 16 17 18 19 20 21 21 21 22 22 23 24 24 25 26 27
19 18 17 16 16 15 15 16 17 18 19 20 21 21 22 23 23 24 25 26 27 28
15 16 16 16 15 15 15 16 16 17 18 19 20 21 23 24 25 26 26 27 28 30
14 13 13 13 14 13 15 16 17 17 19 20 20 21 23 25 26 26 27 28 29 30
15 13 12 13 14 14 14 15 16 17 19 20 22 24 25 24 24 26 28 29 29 30
13 14 14 15 15 15 17 18 19 20 21 22 23 23 23 24 26 28 29 29 29 30
13 15 16 18 19 20 21 21 21 22 23 22 22 22 23 23 25 25 27 29 30 31
14 17 18 19 19 20 21 21 21 21 21 21 22 23 23 24 25 25 27 28 30 31
16 17 17 17 18 19 19 19 19 21 20 21 20 21 22 24 22 24 26 27 29 30
17 17 18 18 19 19 18 18 18 18 18 20 20 21 21 21 22 24 26 27 28 29
18 18 18 18 18 18 18 18 17 17 18 19 20 21 22 23 22 25 27 27 28 29
18 18 18 18 18 16 16 16 17 17 18 18 19 20 22 23 23 25 26 28 30 32
Wind_Direction
247 250 253 254 257 263 267 272 277 282 286 290 294 296 299 300 302 304 305 306 307 308
250 250 252 255 258 263 269 274 278 283 287 290 293 295 297 298 300 302 305 306 307 308
253 253 254 255 258 263 269 274 278 283 287 289 291 294 296 298 300 302 305 306 307 308
254 256 257 260 264 267 271 276 281 285 288 291 293 295 296 298 300 302 303 305 307 307
254 257 260 263 266 269 274 280 285 289 292 294 295 297 298 298 300 301 303 304 305 306
260 262 264 267 270 274 278 283 288 291 293 295 297 298 299 299 299 301 303 305 306 306
261 264 269 273 276 280 283 286 290 294 296 296 297 297 298 300 301 303 303 304 306 307
265 268 270 275 281 285 287 289 289 292 295 297 297 298 299 299 299 300 302 305 308 307
271 272 275 276 278 280 284 290 294 294 295 296 300 301 300 301 301 303 303 305 308 309
275 276 279 282 285 287 291 293 294 295 297 299 301 302 302 303 304 307 308 311 312 313
279 281 287 290 291 293 294 297 297 296 298 300 305 306 307 309 312 313 314 315 315 316
286 288 288 290 293 295 297 299 300 302 302 304 306 310 312 313 315 316 316 318 319 320
292 291 293 295 297 298 300 299 302 305 308 308 310 311 311 313 315 315 317 320 322 324
297 297 298 297 299 302 302 304 304 308 312 314 315 316 315 315 317 318 321 324 323 323